LEMUR-2-JEFF

Last updated on Sat Mar 25 2017 00:15:04 GMT+0000 (Coordinated Universal Time)

1 41490U 98067JL 17082.86138582 .15219034 12544-4 30912-3 0 9990 2 41490 51.5977 64.5171 0003073 162.0648 198.0222 16.46983386 48626

Satellite not in orbit